Tracking 28790 objects as of 19-Apr-2024
HD Live streaming from Space Station
objects crossing your sky now

NOAA 16 DEB

Track NOAA 16 DEB now!
10-day predictions


NORAD ID: 41499
Int'l Code: 2000-055LX
Perigee: 785.4 km
Apogee: 839.3 km
Inclination: 98.7 °
Period: 101.0 minutes
Semi major axis: 7183 km
RCS: Unknown
Launch date: September 21, 2000
Source: United States (US)
Launch site: AIR FORCE WESTERN TEST RANGE (AFWTR)

Note: This is SATELLITE DEBRIS
Your satellite tracking list
Your tracking list is empty




NASA's NSSDC Master Catalog

Two Line Element Set (TLE):
1 41499U 00055LX  24109.41809279  .00013953  00000-0  58133-2 0  9996
2 41499  98.7093 181.5799 0037542  72.5360 287.9918 14.25984627419577
Source of the keplerian elements: AFSPC